STARLINK-1807, 46706

Orbit data source: Space-Track

STARLINK-1807, 46706 is a payload satellite owned by SpaceX/Seattle (US) in LEO that was launched on Sun, 18 Oct 2020 UTC via an FALCON 9 launch vehicle from the Air Force Eastern Test Range (AFETR). Payload-class satellites include a variety of spacecraft equipped with specific instruments for various scientific and technological missions. These include communications satellites like Starlink; space stations such as the ISS; scientific satellites like the Hubble; Earth observation satellites from companies like Planet Labs, Umbra, and HawkEye 360; GPS; miniature CubeSats for education and research; and military/defense satellites.

Loading next visibility...
Identifier
46706, 2020-073AN
Orbit
LEO
Country
Flag of USUS
Related business
Manufacturer
SpaceX/Seattle
Mission
Partially operational Commercial Communications
Bus & Motor
STARLINK, Unknown motor
Mass
260 kg wet, ~248 kg dry
Launch date (UTC)
2020-10-18 (6 years ago)
Launch vehicle
FALCON 9
Launch site
Air Force Eastern Test Range (AFETR)
Object type
Payload
Rocket body
Debris
Shape & HBR
Box + 1 Pan, 10.1 m
Radar Cross Section
13.562 m², Large (>1 m²)

Expand to show TLE details & history
Last TLE update: 10 hours ago

TLE from 10 hours ago
0 STARLINK-1807
1 46706U 20073AN  26266.90255681  .00039360  00000-0  10096-2 0  9992
2 46706  53.0560  23.6451 0001564  19.2188 340.8874 15.38985403327697
Epoch: 2026-09-23T21:39Z
TLE epoch observation values (Epoch: 2026-09-23T21:39:40.908Z)
Latitude
-0.00001°
Longitude
55.97762°
Altitude
448.991 km
Speed
7.645 km/s
True Right ascension
01h 34m 34s
True Declination
0° 00' 00"
Sunlit
Object was in full shadow at epoch
Visualization orbit readout
Latitude
Unknown
Longitude
Unknown
Altitude
Unknown
Speed
Unknown
Apparent Right ascension
Unknown
Apparent Declination
Unknown
Sunlit
N/A
Visualization observer readout
Local Sidereal Time
00:32:40
Azimuth
Unknown
Elevation
Unknown
Doppler factor
Unknown
Orbital elements
Apogee altitude
450.45 km
Perigee altitude
448.315 km
Semi-major axis
6,827.52 km
Eccentricity
0.00016
Inclination
53.056°
RAAN
23.6451°
Arg. of periapsis
19.2188°
True anomaly
340.88153°
Mean anomaly
340.8874°
Eccentric anomaly
340.88447°
Mean motion
3.84724 °/min
Orbital period
93.57 mins
BSTAR
0.0010096
Loading maneuver chart data...
Computing Atmospheric mass density...

Documentation

Showing up to 5 results
|